Weather History for KEWB - April, 2013

Change the Weather History Date:

Monday, April 29, 2013

  Actual Average Record
Temperature  
Mean Temperature 52 °F -  
Max Temperature 64 °F 59 °F 78 °F (1974)
Min Temperature 41 °F 42 °F 28 °F (2001)
Degree Days  
Heating Degree Days 13    
Growing Degree Days 2 (Base 50)    
Moisture  
Dew Point 36 °F    
Average Humidity 66    
Maximum Humidity 100    
Minimum Humidity 21    
Precipitation  
Precipitation 0.00 in - - ()
Sea Level Pressure  
Sea Level Pressure 30.27 in    
Wind  
Wind Speed 2 mph (SSW)    
Max Wind Speed 14 mph    
Max Gust Speed -    
Visibility 8 miles    
Events Fog    
Averages and records for this station are not official NWS values.
T = Trace of Precipitation, MM = Missing Value Source: NWS Daily Summary

Daily Weather History Graph

Daily Weather History Graph

Search for Another Location

Airport or City:

Trip Planner

Search our weather history database for the weather conditions in past years. The results will help you decide how hot, cold, wet, or windy it might be!

Date:

Astronomy

Apr. 29, 2013 Rise Set
Actual Time 5:42 AM EDT 7:40 PM EDT
Civil Twilight 5:12 AM EDT 8:10 PM EDT
Nautical Twilight 4:36 AM EDT 8:47 PM EDT
Astronomical Twilight 3:56 AM EDT 9:27 PM EDT
Moon No Moon Rise 8:58 AM EDT (4/29)
Length of Visible Light 14h 57m
Length of Day
13h 57m
Waning Gibbous, 80% of the Moon is Illuminated
Apr 29
Waning Gibbous
May 2
Last Quarter
May 9
New
May 18
First Quarter
May 25
Full

Hourly Weather History & Observations

Time (EDT) Temp. Dew Point Humidity Pressure Visibility Wind Dir Wind Speed Gust Speed Precip Events Conditions
12:53 AM 46.9 °F 44.1 °F 90% 30.29 in 10.0 mi Calm Calm - N/A   Clear
1:53 AM 45.0 °F 43.0 °F 93% 30.28 in 7.0 mi Calm Calm - N/A   Clear
2:08 AM 42.8 °F 42.8 °F 100% 30.27 in 1.8 mi Calm Calm - N/A   Clear
2:19 AM 44.6 °F 42.8 °F 93% 30.27 in 4.0 mi Calm Calm - N/A   Clear
2:53 AM 44.1 °F 43.0 °F 96% 30.25 in 8.0 mi Calm Calm - N/A   Clear
3:41 AM 42.8 °F 41.0 °F 93% 30.25 in 1.2 mi Calm Calm - N/A   Clear
3:49 AM 42.8 °F 41.0 °F 93% 30.25 in 0.5 mi Calm Calm - N/A Fog Fog
3:53 AM 43.0 °F 41.0 °F 93% 30.25 in 0.8 mi Calm Calm - N/A   Clear
3:56 AM 42.8 °F 41.0 °F 93% 30.25 in 2.0 mi Calm Calm - N/A   Clear
4:03 AM 42.8 °F 41.0 °F 93% 30.25 in 9.0 mi Calm Calm - N/A   Clear
4:53 AM 42.1 °F 41.0 °F 96% 30.25 in 6.0 mi Calm Calm - N/A   Clear
5:53 AM 42.1 °F 41.0 °F 96% 30.27 in 6.0 mi Calm Calm - N/A   Clear
6:53 AM 43.0 °F 41.0 °F 93% 30.28 in 10.0 mi Calm Calm - N/A   Clear
7:53 AM 48.9 °F 46.9 °F 93% 30.29 in 10.0 mi Calm Calm - N/A   Clear
8:53 AM 55.0 °F 45.0 °F 69% 30.29 in 10.0 mi SSW 6.9 mph - N/A   Clear
9:53 AM 59.0 °F 37.9 °F 46% 30.29 in 10.0 mi South 8.1 mph - N/A   Clear
10:53 AM 61.0 °F 37.9 °F 42% 30.29 in 10.0 mi SSE 9.2 mph - N/A   Clear
11:53 AM 62.1 °F 32.0 °F 32% 30.28 in 10.0 mi SW 13.8 mph - N/A   Clear
12:53 PM 63.0 °F 21.9 °F 21% 30.27 in 10.0 mi South 10.4 mph - N/A   Clear
1:53 PM 63.0 °F 24.1 °F 23% 30.25 in 10.0 mi South 11.5 mph - N/A   Clear
2:53 PM 62.1 °F 21.0 °F 21% 30.25 in 10.0 mi SSW 10.4 mph - N/A   Clear
3:53 PM 61.0 °F 21.0 °F 21% 30.25 in 10.0 mi South 13.8 mph - N/A   Clear
4:53 PM 60.1 °F 19.9 °F 21% 30.24 in 10.0 mi South 11.5 mph - N/A   Clear
5:53 PM 57.9 °F 24.1 °F 27% 30.25 in 10.0 mi SSW 9.2 mph - N/A   Clear
6:53 PM 54.0 °F 28.0 °F 37% 30.25 in 10.0 mi SSW 4.6 mph - N/A   Clear
7:53 PM 51.1 °F 28.9 °F 43% 30.26 in 10.0 mi South 4.6 mph - N/A   Clear
8:53 PM 48.9 °F 30.9 °F 50% 30.27 in 10.0 mi SW 3.5 mph - N/A   Clear
9:53 PM 46.9 °F 34.0 °F 61% 30.28 in 10.0 mi Calm Calm - N/A   Clear
10:53 PM 41.0 °F 35.1 °F 79% 30.27 in 10.0 mi Calm Calm - N/A   Partly Cloudy
11:53 PM 42.1 °F 36.0 °F 79% 30.27 in 10.0 mi Calm Calm - N/A   Clear